THOR ABLESTAR DEB, 1504

Orbit data source: Space-Track

THOR ABLESTAR DEB, 1504 is space debris in LEO originally from a launch on Fri, 13 Aug 1965 UTC launched from the Air Force Western Test Range (AFWTR). Debris objects in space refer to the collection of defunct objects orbiting the Earth. Examples of debris include non-operational satellites, rocket bodies, and fragments generated from explosions, collisions, or faulty payload assembly.

Loading next visibility...
Identifier
1504, 1965-065A
Orbit
LEO
Last TLE update
2 days ago
Origin
Manufacturer
NRL
Mission
Spacecraft
Bus & Motor
Unknown
Mass
Unknown
Launch date (UTC)
1965-08-13 (60 years ago)
Launch vehicle
Unknown
Launch site
Air Force Western Test Range (AFWTR)
Object type
Payload
Rocket body
Debris
Shape & HBR
Unknown
Radar Cross Section
Small (<0.1 m²)

Expand to show TLE details & history

TLE from 2 days ago
0 THOR ABLESTAR DEB
1 01504U 65065A   25107.87186140  .00000339  00000-0  59748-3 0  9993
2 01504  89.9393 243.6772 0065428 347.9582 179.4617 13.40219244910732
Epoch: 2025-04-17T20:55Z
Definitive object data (Epoch: 2025-04-17T20:55:28.824Z)
Latitude
12.53287°
Longitude
-96.44386°
Altitude
1,159.641 km
Speed
7.25 km/s
True Right ascension
04h 14m 39s
True Declination
12° 27' 51"
Sunlit
Object was in daylight at TLE epoch
Visualization TLE readout
Latitude
45.24594°
Longitude
83.6185°
Altitude
1,092.764 km
Speed
7.321 km/s
Apparent Right ascension
15h 55m 06s
Apparent Declination
6° 49' 28"
Sunlit
Object is in daylight
Visualization observer readout
Local Sidereal Time
03:33:49
Azimuth
352.765° N
Elevation
-43.002°
Doppler factor
1
Orbital elements
Apogee altitude
1,154.491 km
Perigee altitude
1,056.562 km
Semi-major axis
7,483.664 km
Eccentricity
0.0065428
Inclination
89.9393°
RAAN
243.6772°
Arg. of periapsis
347.9582°
True anomaly
179.46869°
Mean anomaly
179.4617°
Eccentric anomaly
179.4652°
Mean motion
3.35252 °/min
BSTAR
0.00059748
Orbital period
107.38 mins
Loading maneuver chart data...
Loading SW <> Apogee altitude chart data...
Loading historical data...
Loading historical data...
Loading historical data...
Loading historical data...
Loading historical data...
Loading historical data...
Loading historical data...

THOR ABLESTAR DEB Visibility forecast

Observer location: undefined°, undefined°

Span
Click to sort rows by Start time (UTC) header in descending order
Start Az.
Max El. time (UTC)
Max El. Az.
Max El.
End time (UTC)
End Az.
13 mins2025-04-19 21:03:29.766Z5.983° NNE2025-04-19 21:09:29.766Z56.276° ENE43.566°2025-04-19 21:16:29.766Z176.355° S
7 mins2025-04-19 22:53:29.766Z317.74° NNW2025-04-19 22:56:29.766Z288.04° WNW17.779°2025-04-19 23:00:29.766Z251.197° W
11 mins2025-04-20 09:07:29.766Z169.872° S2025-04-20 09:12:29.766Z89.454° E44.522°2025-04-20 09:18:29.766Z0.786° NNE
5 mins2025-04-20 10:58:29.766Z263.165° W2025-04-20 11:00:29.766Z283.164° WNW15.046°2025-04-20 11:03:29.766Z312.043° NW
11 mins2025-04-20 20:22:29.766Z23.724° NE2025-04-20 20:27:29.766Z84.36° E32.476°2025-04-20 20:33:29.766Z150.625° SSE
|